SCP
0 0 0 0 0 0 0 0 0 0 0 0 0 0 0 0 0 0 0 0 0 0 0 0 0 0 0 0 0 0 0 0 0 0 0 0 0 -0 0 0 0 0 0 0
0 0 0 0 0 0 0 0 0 0 0 0 0 0 0 0 0 0 0 0 0 0 0 0 0 0 0 0 0 0 0 0 0 0 0 0 0 -0 -0 0 0 0 0 0
0 0 0 0 0 0 0 0 0 0 0 0 0 0 0 0 0 0 0 0 0 0 0 0 0 0 0 0 0 0 0 0 0 0 0 0 0 0 -0 -0 0 0 0 0
0 0 0 0 0 0 0 0 0 0 0 0 0 0 0 0 0 0 0 0 0 0 0 0 0 0 0 0 0 0 0 0 0 0 -0 0 0 0 0 -0 -0 0 0 0
0 0 0 0 0 0 0 0 0 0 0 0 0 0 0 0 0 0 0 0 0 0 0 0 0 0 0 0 0 0 0 0 0 -0 0 0 0 0 0 0 0 -0 0 0
0 0 0 0 0 0 0 0 0 0 0 0 0 0 0 0 0 0 0 0 0 0 0 0 0 0 0 0 0 0 0 0 0 0 0 0 0 0 0 0 0 0 0 0
0 0 0 0 0 0 0 0 0 0 0 0 0 0 0 0 0 0 0 0 0 0 0 0 0 0 0 0 0 0 0 0 0 0 0 0 0 0 0 0 0 0 -0 0
0 0 0 0 0 0 0 0 0 0 0 0 0 0 0 0 0 0 0 0 0 0 0 0 0 0 0 0 0 0 0 0 0 0 0 0 0 0 0 0 0 0 0 -0
0 0 0 0 0 0 0 0 0 0 0 0 0 0 0 0 0 0 0 0 0 0 0 0 0 0 0 0 0 0 0 0 0 0 0 0 0 0 0 0 0 0 0 0
0 0 0 0 0 0 0 0 0 0 0 0 0 0 0 0 0 0 0 0 0 0 0 0 0 0 0 0 0 0 0 0 0 0 0 0 0 0 0 0 0 0 0 0
0 0 0 0 0 0 0 0 0 0 0 0 0 0 0 0 0 0 0 0 0 0 0 0 0 0 0 0 0 0 0 0 0 0 0 0 0 0 0 0 0 0 0 0
0 0 0 0 0 0 0 0 0 0 0 0 0 0 0 0 0 0 0 0 0 0 0 0 0 0 0 0 0 0 0 0 0 0 0 0 0 0 0 0 0 0 0 0
0 0 0 0 0 0 0 0 0 0 0 0 0 0 0 0 0 0 0 0 0 0 0 0 0 0 0 0 0 0 0 0 0 0 0 0 0 0 0 0 0 0 0 0
0 0 0 0 0 0 0 0 0 0 0 0 0 0 0 0 0 0 0 0 0 0 0 0 0 0 0 0 0 -0 -0 0 0 0 0 0 0 0 0 0 0 0 0 0
0 0 0 0 0 0 0 0 0 0 0 0 0 0 0 0 0 0 0 0 0 0 0 0 0 0 0 0 0 0 0 0 -0 0 0 0 0 0 0 0 0 0 0 0
0 0 0 0 0 0 0 0 0 0 0 0 0 0 0 0 0 0 0 0 0 0 0 0 0 0 0 0 0 0 0 -0 -0 0 0 0 0 0 0 0 0 0 0 0
0 0 0 0 0 0 0 0 0 0 0 0 0 0 0 0 0 0 0 0 0 0 0 0 0 0 0 0 0 -0 -0 -0 -0 -0 0 -0 0 0 0 0 0 0 0 0
0 0 0 0 0 0 0 0 0 0 0 0 0 0 0 0 0 0 0 0 0 0 0 0 0 0 0 0 0 -0 -0 -0 -0 -0 -0 0 0 0 0 0 0 0 0 0
0 0 0 0 0 0 0 0 0 0 0 0 0 0 0 0 0 0 0 0 0 0 0 0 0 0 0 0 0 -0 -0 -0 -0 -0 0 0 0 0 0 0 0 0 0 0
0 0 0 0 0 0 0 0 0 0 0 0 0 0 0 -0 -0 0 0 0 0 0 0 0 0 0 0 0 0 0 -0 0 0 0 0 0 0 0 0 0 0 0 0 0
0 0 0 0 0 0 0 0 0 0 0 0 0 -0 0 -0 0 0 0 0 0 0 0 0 0 0 0 0 0 0 0 0 0 0 0 0 0 0 0 0 0 0 0 0
0 0 0 0 0 0 0 0 0 0 0 0 -0 -0 -0 0 0 0 0 0 0 0 0 0 0 0 0 0 0 0 0 0 0 0 0 0 0 0 0 0 0 0 0 0
0 0 0 0 0 0 0 0 0 0 0 -0 -0 -0 -0 0 0 0 0 0 0 0 0 0 0 0 0 0 0 0 0 0 0 0 0 0 0 0 0 0 0 0 0 0
0 0 0 0 0 0 0 0 0 0 -0 -0 -0 -0 -0 0 -0 0 0 0 0 0 0 0 0 0 0 0 0 0 0 0 0 0 0 0 0 0 0 0 0 0 0 0
0 0 0 0 0 0 0 0 0 0 -0 -0 0 0 0 0 0 0 0 0 0 0 0 0 0 0 -0 0 0 0 0 0 0 0 0 0 0 0 0 0 0 0 0 -0
0 0 0 0 0 0 0 0 0 0 0 -0 -0 0 0 0 0 0 0 0 0 0 0 0 0 0 0 0 0 0 0 -0 -0 -0 -0 -0 -0 -0 -0 0 0 -0 -0 -0
Wind_Speed_500mb
3 8 5 8 4 6 4 7 13 12 12 15 15 24 42 61 39 39 51 46 51 53 52 29 28 23 24 26 27 39 42 40 39 44 51 62 59 64 73 113 116 119 109 99
9 3 7 4 1 3 5 9 13 15 4 13 25 43 40 22 18 26 42 50 50 49 30 24 17 17 26 28 27 29 42 48 46 40 43 48 53 63 63 75 92 122 119 111
8 3 8 3 5 7 6 8 7 15 11 9 24 16 12 7 12 33 44 40 32 25 26 18 16 15 20 25 28 33 39 48 55 59 60 67 62 58 61 66 74 92 122 112
5 2 4 3 4 7 7 7 8 14 13 4 13 12 14 9 17 17 35 30 32 11 6 6 14 31 43 52 58 60 61 66 69 69 74 70 77 82 77 64 67 71 112 116
3 7 5 2 9 9 13 6 13 9 6 7 11 4 17 8 15 19 19 36 18 17 18 26 45 61 56 67 63 71 77 82 95 100 96 92 92 95 90 82 68 80 78 130
8 2 7 9 2 5 8 10 7 6 5 6 8 8 13 7 14 9 15 30 27 31 27 46 51 58 77 75 78 79 98 93 89 93 92 97 102 106 92 87 77 81 101 81
7 5 3 5 3 5 7 9 8 11 9 10 3 5 25 25 20 18 29 53 40 40 49 63 67 76 95 79 80 92 106 107 97 94 95 95 101 104 104 91 86 77 67 104
5 11 12 8 9 7 4 8 9 11 6 11 5 15 14 18 29 48 54 38 39 51 70 84 100 102 108 87 91 109 107 98 95 91 94 98 100 100 103 109 99 90 86 94
7 10 3 7 6 13 6 6 5 7 1 5 7 14 24 27 12 18 39 47 62 75 88 97 105 105 109 97 99 92 95 100 89 85 87 91 87 90 97 112 110 108 93 76
7 6 2 2 5 5 8 9 5 6 4 12 12 13 28 22 19 17 25 43 61 78 85 91 92 94 97 96 93 94 90 83 85 85 85 88 88 93 94 87 87 100 92 87
8 6 6 3 14 16 6 5 4 6 9 9 9 26 18 17 13 30 26 55 79 86 94 96 97 99 88 92 94 85 76 79 77 79 77 78 85 87 79 85 86 77 91 91
10 7 7 21 3 1 7 14 12 9 12 8 5 31 7 26 17 30 64 72 83 87 92 88 82 89 97 83 76 75 72 74 76 75 73 78 77 81 88 82 89 82 94 94
14 3 6 15 9 5 10 10 11 5 5 18 7 24 7 18 53 71 63 76 83 84 83 82 90 88 80 82 75 71 70 71 71 69 69 76 78 79 87 84 78 84 96 97
18 8 13 13 8 6 9 11 12 14 6 12 39 64 72 58 48 55 73 81 74 83 80 86 86 81 83 75 73 72 69 65 62 57 60 58 67 79 80 84 79 83 93 94
11 12 5 16 18 12 29 32 33 33 45 21 70 34 62 56 51 60 75 70 74 74 83 86 81 83 76 75 72 69 64 57 48 41 41 43 55 76 80 76 87 82 92 86
9 6 4 9 12 13 32 43 40 48 45 37 52 64 57 78 68 50 65 56 59 81 83 82 84 78 74 73 71 65 56 44 34 24 22 13 44 61 70 76 85 86 84 92
14 9 6 11 7 16 22 17 22 11 12 16 21 28 31 26 25 51 59 57 67 73 83 83 79 73 70 67 63 57 48 38 29 8 17 23 43 60 63 74 84 77 79 83
13 12 6 7 8 6 10 7 8 14 14 30 25 26 33 28 54 66 33 61 69 78 81 77 73 65 61 58 52 46 37 26 13 12 31 47 57 67 80 85 85 89 82 75
7 10 3 4 6 19 17 3 12 14 17 19 29 32 27 44 41 25 18 72 70 72 67 65 61 54 52 48 42 34 29 19 8 11 28 42 57 74 78 78 75 77 80 73
9 4 8 6 6 14 10 4 9 9 11 13 23 17 15 25 19 15 68 71 67 59 57 56 56 52 48 44 37 31 27 23 26 22 25 34 45 55 61 69 71 71 71 71
13 5 26 6 9 20 27 15 4 9 12 22 35 26 15 5 14 51 53 59 51 53 53 53 53 50 46 41 38 39 33 35 28 28 32 37 44 54 58 62 61 64 70 77
20 20 11 8 6 22 34 20 18 12 7 26 27 30 29 46 44 38 43 46 41 46 55 56 52 50 48 44 40 40 41 31 31 35 40 44 48 55 54 59 66 63 71 78
9 17 14 26 19 7 57 18 58 13 13 25 38 39 48 43 36 32 35 34 28 34 48 58 58 53 52 51 46 44 40 37 40 45 49 50 52 54 57 68 75 79 77 78
11 17 8 5 18 41 44 63 59 44 52 57 64 52 32 29 26 23 25 22 17 22 36 48 62 66 61 55 53 51 46 48 54 61 60 59 63 67 69 71 75 81 79 76
12 27 14 14 26 17 45 53 56 55 48 42 27 9 12 17 17 19 17 14 8 10 19 31 43 52 56 63 72 64 56 55 63 67 69 71 73 74 77 76 73 73 69 61
19 17 17 16 23 20 9 13 20 29 26 24 15 7 12 10 12 16 14 11 4 6 9 14 23 32 38 42 47 51 55 64 73 76 76 77 76 74 71 69 65 53 46 41
Wind_Direction_500mb
20 66 183 183 148 138 184 243 257 262 281 319 268 281 288 296 299 282 287 292 298 301 317 320 302 285 270 280 274 286 287 285 282 276 279 272 267 269 250 233 240 230 229 224
22 221 204 179 182 29 287 299 286 287 325 342 298 291 271 281 265 278 288 290 298 305 314 315 325 291 297 307 291 288 295 296 294 290 282 275 272 270 278 265 228 230 229 223
177 195 158 55 12 329 276 219 272 255 321 258 317 302 324 323 277 289 302 301 305 297 300 283 266 281 289 288 290 292 282 278 286 292 289 285 282 283 270 264 263 225 228 224
227 147 128 41 263 154 280 192 263 285 12 267 64 286 306 285 289 295 293 290 306 309 353 1 325 310 307 310 299 299 291 283 279 279 277 276 278 279 278 280 269 270 219 227
267 170 193 228 215 167 236 335 281 280 205 42 335 67 272 313 277 275 272 302 273 272 281 305 315 312 308 309 306 302 299 290 283 282 272 269 268 269 271 271 270 254 237 222
257 355 181 214 257 232 334 307 18 21 119 16 245 129 272 240 221 231 259 299 263 288 283 315 323 315 308 300 302 298 307 299 289 283 274 267 264 262 263 263 256 254 254 231
312 205 161 155 16 42 52 33 327 344 5 226 189 31 244 266 246 251 273 284 259 296 289 305 307 310 309 294 296 298 304 303 295 285 278 269 262 257 253 253 250 248 250 247
127 317 176 165 182 179 228 166 154 260 280 274 118 244 246 240 274 283 284 270 282 299 303 305 312 310 305 293 294 304 302 293 286 277 270 270 265 256 250 246 244 247 243 237
136 279 133 181 149 133 178 213 171 96 156 358 240 284 285 270 261 282 299 287 297 309 307 305 308 307 303 298 298 292 292 289 284 276 268 263 257 255 251 245 242 242 243 244
173 310 225 115 70 252 181 156 78 2 330 288 263 265 248 282 286 292 296 292 301 305 303 303 302 299 303 301 296 292 291 280 278 274 267 262 256 251 249 245 243 242 235 229
130 115 287 74 202 180 160 217 144 123 166 201 304 284 215 247 263 294 292 300 308 307 307 305 305 308 302 297 295 293 285 280 276 269 270 263 257 250 241 237 229 224 223 219
190 143 232 225 250 214 197 197 156 147 241 230 194 268 254 273 277 308 310 307 306 307 305 307 309 306 304 302 298 294 288 283 281 285 279 269 259 247 241 231 227 215 224 219
175 224 336 332 5 27 231 205 198 134 104 208 171 266 212 299 313 307 305 305 308 310 311 317 312 310 310 308 305 300 297 301 298 290 278 270 258 244 234 227 217 212 218 216
145 171 189 211 194 134 219 217 204 183 183 262 233 275 286 292 300 303 307 306 309 314 318 316 312 314 317 312 309 310 315 313 305 296 284 267 256 233 222 210 202 211 210 213
143 210 211 269 267 250 258 249 238 235 244 232 275 267 275 290 295 298 299 305 314 316 320 316 318 319 320 322 326 327 324 323 322 307 281 273 241 220 211 205 202 206 202 208
180 255 97 282 291 279 269 258 243 242 253 253 260 272 274 277 283 288 302 314 314 318 317 320 325 325 328 335 334 333 332 331 331 290 284 216 182 184 186 188 189 199 198 202
163 140 84 271 338 328 286 239 213 179 193 203 221 244 266 290 299 307 313 319 318 317 321 324 328 330 339 339 338 338 337 340 317 248 177 173 172 176 173 179 187 191 199 201
145 127 127 266 5 267 246 226 178 199 231 222 259 269 271 275 300 306 323 333 326 325 327 331 336 341 345 344 346 345 346 345 336 199 171 166 174 175 177 179 185 189 192 191
157 133 149 201 209 303 288 158 148 159 279 220 221 253 267 304 315 321 318 338 333 335 343 346 350 353 351 352 356 356 3 12 50 153 171 172 173 172 173 174 176 175 180 181
174 84 149 115 188 237 240 191 119 137 286 215 199 233 266 323 343 310 330 339 340 353 359 360 5 3 6 9 13 23 36 53 80 107 138 156 167 164 162 164 167 167 173 174
162 160 214 182 245 280 244 195 83 78 243 192 200 236 266 262 268 312 331 340 348 4 10 15 17 17 22 28 37 50 56 63 83 109 125 139 141 151 153 153 155 158 158 157
170 161 188 148 189 272 166 127 177 211 171 198 223 261 304 317 316 327 338 342 355 18 24 30 27 29 33 43 50 61 67 72 86 103 114 122 132 135 139 143 145 150 151 148
216 188 184 191 207 246 190 204 206 170 240 254 271 280 305 306 314 327 337 344 4 32 39 44 44 41 42 46 55 62 70 84 98 104 110 117 123 127 133 136 140 141 142 139
238 180 222 136 237 231 234 231 242 251 265 285 288 289 285 284 303 323 331 342 16 46 57 59 59 54 53 55 59 66 77 92 99 105 106 112 116 121 122 123 126 130 133 132
186 155 177 265 270 281 267 247 247 256 266 262 278 279 255 279 299 312 327 332 19 80 74 67 69 70 66 66 66 69 76 84 92 99 105 109 111 112 114 114 117 120 123 125
177 178 190 220 206 181 198 172 195 220 234 235 224 234 233 268 295 298 313 319 333 147 127 89 75 77 78 79 81 80 76 80 89 95 101 107 111 115 117 121 125 124 123 127
Wind_Speed_850mb
3 8 5 8 4 6 4 7 13 12 12 15 15 24 42 61 39 39 51 46 51 53 52 29 28 23 24 26 27 39 42 40 39 44 51 62 59 64 73 113 116 119 109 99
9 3 7 4 1 3 5 9 13 15 4 13 25 43 40 22 18 26 42 50 50 49 30 24 17 17 26 28 27 29 42 48 46 40 43 48 53 63 63 75 92 122 119 111
8 3 8 3 5 7 6 8 7 15 11 9 24 16 12 7 12 33 44 40 32 25 26 18 16 15 20 25 28 33 39 48 55 59 60 67 62 58 61 66 74 92 122 112
5 2 4 3 4 7 7 7 8 14 13 4 13 12 14 9 17 17 35 30 32 11 6 6 14 31 43 52 58 60 61 66 69 69 74 70 77 82 77 64 67 71 112 116
3 7 5 2 9 9 13 6 13 9 6 7 11 4 17 8 15 19 19 36 18 17 18 26 45 61 56 67 63 71 77 82 95 100 96 92 92 95 90 82 68 80 78 130
8 2 7 9 2 5 8 10 7 6 5 6 8 8 13 7 14 9 15 30 27 31 27 46 51 58 77 75 78 79 98 93 89 93 92 97 102 106 92 87 77 81 101 81
7 5 3 5 3 5 7 9 8 11 9 10 3 5 25 25 20 18 29 53 40 40 49 63 67 76 95 79 80 92 106 107 97 94 95 95 101 104 104 91 86 77 67 104
5 11 12 8 9 7 4 8 9 11 6 11 5 15 14 18 29 48 54 38 39 51 70 84 100 102 108 87 91 109 107 98 95 91 94 98 100 100 103 109 99 90 86 94
7 10 3 7 6 13 6 6 5 7 1 5 7 14 24 27 12 18 39 47 62 75 88 97 105 105 109 97 99 92 95 100 89 85 87 91 87 90 97 112 110 108 93 76
7 6 2 2 5 5 8 9 5 6 4 12 12 13 28 22 19 17 25 43 61 78 85 91 92 94 97 96 93 94 90 83 85 85 85 88 88 93 94 87 87 100 92 87
8 6 6 3 14 16 6 5 4 6 9 9 9 26 18 17 13 30 26 55 79 86 94 96 97 99 88 92 94 85 76 79 77 79 77 78 85 87 79 85 86 77 91 91
10 7 7 21 3 1 7 14 12 9 12 8 5 31 7 26 17 30 64 72 83 87 92 88 82 89 97 83 76 75 72 74 76 75 73 78 77 81 88 82 89 82 94 94
14 3 6 15 9 5 10 10 11 5 5 18 7 24 7 18 53 71 63 76 83 84 83 82 90 88 80 82 75 71 70 71 71 69 69 76 78 79 87 84 78 84 96 97
18 8 13 13 8 6 9 11 12 14 6 12 39 64 72 58 48 55 73 81 74 83 80 86 86 81 83 75 73 72 69 65 62 57 60 58 67 79 80 84 79 83 93 94
11 12 5 16 18 12 29 32 33 33 45 21 70 34 62 56 51 60 75 70 74 74 83 86 81 83 76 75 72 69 64 57 48 41 41 43 55 76 80 76 87 82 92 86
9 6 4 9 12 13 32 43 40 48 45 37 52 64 57 78 68 50 65 56 59 81 83 82 84 78 74 73 71 65 56 44 34 24 22 13 44 61 70 76 85 86 84 92
14 9 6 11 7 16 22 17 22 11 12 16 21 28 31 26 25 51 59 57 67 73 83 83 79 73 70 67 63 57 48 38 29 8 17 23 43 60 63 74 84 77 79 83
13 12 6 7 8 6 10 7 8 14 14 30 25 26 33 28 54 66 33 61 69 78 81 77 73 65 61 58 52 46 37 26 13 12 31 47 57 67 80 85 85 89 82 75
7 10 3 4 6 19 17 3 12 14 17 19 29 32 27 44 41 25 18 72 70 72 67 65 61 54 52 48 42 34 29 19 8 11 28 42 57 74 78 78 75 77 80 73
9 4 8 6 6 14 10 4 9 9 11 13 23 17 15 25 19 15 68 71 67 59 57 56 56 52 48 44 37 31 27 23 26 22 25 34 45 55 61 69 71 71 71 71
13 5 26 6 9 20 27 15 4 9 12 22 35 26 15 5 14 51 53 59 51 53 53 53 53 50 46 41 38 39 33 35 28 28 32 37 44 54 58 62 61 64 70 77
20 20 11 8 6 22 34 20 18 12 7 26 27 30 29 46 44 38 43 46 41 46 55 56 52 50 48 44 40 40 41 31 31 35 40 44 48 55 54 59 66 63 71 78
9 17 14 26 19 7 57 18 58 13 13 25 38 39 48 43 36 32 35 34 28 34 48 58 58 53 52 51 46 44 40 37 40 45 49 50 52 54 57 68 75 79 77 78
11 17 8 5 18 41 44 63 59 44 52 57 64 52 32 29 26 23 25 22 17 22 36 48 62 66 61 55 53 51 46 48 54 61 60 59 63 67 69 71 75 81 79 76
12 27 14 14 26 17 45 53 56 55 48 42 27 9 12 17 17 19 17 14 8 10 19 31 43 52 56 63 72 64 56 55 63 67 69 71 73 74 77 76 73 73 69 61
19 17 17 16 23 20 9 13 20 29 26 24 15 7 12 10 12 16 14 11 4 6 9 14 23 32 38 42 47 51 55 64 73 76 76 77 76 74 71 69 65 53 46 41
Wind_Direction_850mb
20 66 183 183 148 138 184 243 257 262 281 319 268 281 288 296 299 282 287 292 298 301 317 320 302 285 270 280 274 286 287 285 282 276 279 272 267 269 250 233 240 230 229 224
22 221 204 179 182 29 287 299 286 287 325 342 298 291 271 281 265 278 288 290 298 305 314 315 325 291 297 307 291 288 295 296 294 290 282 275 272 270 278 265 228 230 229 223
177 195 158 55 12 329 276 219 272 255 321 258 317 302 324 323 277 289 302 301 305 297 300 283 266 281 289 288 290 292 282 278 286 292 289 285 282 283 270 264 263 225 228 224
227 147 128 41 263 154 280 192 263 285 12 267 64 286 306 285 289 295 293 290 306 309 353 1 325 310 307 310 299 299 291 283 279 279 277 276 278 279 278 280 269 270 219 227
267 170 193 228 215 167 236 335 281 280 205 42 335 67 272 313 277 275 272 302 273 272 281 305 315 312 308 309 306 302 299 290 283 282 272 269 268 269 271 271 270 254 237 222
257 355 181 214 257 232 334 307 18 21 119 16 245 129 272 240 221 231 259 299 263 288 283 315 323 315 308 300 302 298 307 299 289 283 274 267 264 262 263 263 256 254 254 231
312 205 161 155 16 42 52 33 327 344 5 226 189 31 244 266 246 251 273 284 259 296 289 305 307 310 309 294 296 298 304 303 295 285 278 269 262 257 253 253 250 248 250 247
127 317 176 165 182 179 228 166 154 260 280 274 118 244 246 240 274 283 284 270 282 299 303 305 312 310 305 293 294 304 302 293 286 277 270 270 265 256 250 246 244 247 243 237
136 279 133 181 149 133 178 213 171 96 156 358 240 284 285 270 261 282 299 287 297 309 307 305 308 307 303 298 298 292 292 289 284 276 268 263 257 255 251 245 242 242 243 244
173 310 225 115 70 252 181 156 78 2 330 288 263 265 248 282 286 292 296 292 301 305 303 303 302 299 303 301 296 292 291 280 278 274 267 262 256 251 249 245 243 242 235 229
130 115 287 74 202 180 160 217 144 123 166 201 304 284 215 247 263 294 292 300 308 307 307 305 305 308 302 297 295 293 285 280 276 269 270 263 257 250 241 237 229 224 223 219
190 143 232 225 250 214 197 197 156 147 241 230 194 268 254 273 277 308 310 307 306 307 305 307 309 306 304 302 298 294 288 283 281 285 279 269 259 247 241 231 227 215 224 219
175 224 336 332 5 27 231 205 198 134 104 208 171 266 212 299 313 307 305 305 308 310 311 317 312 310 310 308 305 300 297 301 298 290 278 270 258 244 234 227 217 212 218 216
145 171 189 211 194 134 219 217 204 183 183 262 233 275 286 292 300 303 307 306 309 314 318 316 312 314 317 312 309 310 315 313 305 296 284 267 256 233 222 210 202 211 210 213
143 210 211 269 267 250 258 249 238 235 244 232 275 267 275 290 295 298 299 305 314 316 320 316 318 319 320 322 326 327 324 323 322 307 281 273 241 220 211 205 202 206 202 208
180 255 97 282 291 279 269 258 243 242 253 253 260 272 274 277 283 288 302 314 314 318 317 320 325 325 328 335 334 333 332 331 331 290 284 216 182 184 186 188 189 199 198 202
163 140 84 271 338 328 286 239 213 179 193 203 221 244 266 290 299 307 313 319 318 317 321 324 328 330 339 339 338 338 337 340 317 248 177 173 172 176 173 179 187 191 199 201
145 127 127 266 5 267 246 226 178 199 231 222 259 269 271 275 300 306 323 333 326 325 327 331 336 341 345 344 346 345 346 345 336 199 171 166 174 175 177 179 185 189 192 191
157 133 149 201 209 303 288 158 148 159 279 220 221 253 267 304 315 321 318 338 333 335 343 346 350 353 351 352 356 356 3 12 50 153 171 172 173 172 173 174 176 175 180 181
174 84 149 115 188 237 240 191 119 137 286 215 199 233 266 323 343 310 330 339 340 353 359 360 5 3 6 9 13 23 36 53 80 107 138 156 167 164 162 164 167 167 173 174
162 160 214 182 245 280 244 195 83 78 243 192 200 236 266 262 268 312 331 340 348 4 10 15 17 17 22 28 37 50 56 63 83 109 125 139 141 151 153 153 155 158 158 157
170 161 188 148 189 272 166 127 177 211 171 198 223 261 304 317 316 327 338 342 355 18 24 30 27 29 33 43 50 61 67 72 86 103 114 122 132 135 139 143 145 150 151 148
216 188 184 191 207 246 190 204 206 170 240 254 271 280 305 306 314 327 337 344 4 32 39 44 44 41 42 46 55 62 70 84 98 104 110 117 123 127 133 136 140 141 142 139
238 180 222 136 237 231 234 231 242 251 265 285 288 289 285 284 303 323 331 342 16 46 57 59 59 54 53 55 59 66 77 92 99 105 106 112 116 121 122 123 126 130 133 132
186 155 177 265 270 281 267 247 247 256 266 262 278 279 255 279 299 312 327 332 19 80 74 67 69 70 66 66 66 69 76 84 92 99 105 109 111 112 114 114 117 120 123 125
177 178 190 220 206 181 198 172 195 220 234 235 224 234 233 268 295 298 313 319 333 147 127 89 75 77 78 79 81 80 76 80 89 95 101 107 111 115 117 121 125 124 123 127